Regional Weather Roundup
Issued by NWS

Home | Current Version | Previous Version | Graphics & Text | Print | Product List | Glossary On
Versions: 1 2 3 4 5 6 7 8 9 10 11 12 13 14 15 16 17 18 19 20 21 22 23 24 25 26 27
000
ASUS45 KSLC 230110
RWRUT

UTAH REGIONAL WEATHER ROUNDUP
NATIONAL WEATHER SERVICE SALT LAKE CITY UT
700 PM MDT MON MAY 22 2017

UTZ001>011-023>025-230200-

NORTHERN UTAH

CITY           SKY/WX    TMP DP  RH WIND       PRES   REMARKS
BRIGHAM CITY   CLOUDY    72  36  26 S8        30.15S
HILL AFB       MOSUNNY   69  35  27 CALM      30.17F
LOGAN          MOSUNNY   73  45  36 NW5       30.14S
OGDEN            N/A     70  34  26 S5        30.15F
SALT LAKE CITY PTSUNNY   75  35  23 NW3       30.14F
TOOELE VALLEY  MOSUNNY   72  36  26 CALM      30.16F
WENDOVER       SUNNY     76  31  19 E3        30.15F
HEBER CITY     MOSUNNY   70  34  26 N6        30.17S
WEST JORDAN    PTSUNNY   73  48  41 N9        30.18F

$$

UTZ011>015-024>027-230200-

CENTRAL/NORTHEAST UTAH

CITY           SKY/WX    TMP DP  RH WIND       PRES   REMARKS
PROVO AIRPORT  MOSUNNY   69  40  34 NW20      30.15F
MOAB/CANYONLAN SUNNY     77  27  15 W7        30.03F
DELTA          SUNNY     73  28  19 NW14G20   30.15F
PRICE          SUNNY     70  32  24 NW16G23   30.15S
RICHFIELD      SUNNY     72  34  25 N8G14     30.18F
ROOSEVELT      CLOUDY    73  28  19 NW10      30.11S
VERNAL         MOSUNNY   64  34  32 N18G30    30.12R

$$

UTZ013>016-019>022-027-230200-

SOUTHERN UTAH

CITY           SKY/WX    TMP DP  RH WIND       PRES   REMARKS
BRYCE CANYON   SUNNY     66  23  19 NW21G26   30.26S
CEDAR CITY     MOSUNNY   72  25  17 N15G22    30.17F
MILFORD        MOSUNNY   76  27  16 NE9G21    30.16F
ST GEORGE      PTCLDY    88  29  12 NE10      29.98F
HANKSVILLE     MOSUNNY   81  28  15 W12G21    30.05F
KANAB          SUNNY     81  27  13 W6G14     30.12F
BLANDING       SUNNY     69  21  16 N20G28    30.20S

$$

REGIONAL REPORTS     COLORADO/ARIZONA

CITY           SKY/WX    TMP DP  RH WIND       PRES   REMARKS
CRAIG, CO      CLOUDY    48  35  60 E13       30.24R
GRAND JUNCTION MOSUNNY   72  28  19 W7        30.05F
RIFLE, CO      CLOUDY    58  37  45 N21G33    30.16R
MONTROSE, CO   CLOUDY    66  27  23 N10       30.13F
CORTEZ, CO     SUNNY     70  23  17 NW15G22   30.11S
COLORADO CITY    N/A     81  27  13 NW14G20   30.13F
PAGE, AZ       SUNNY     81  30  15 E8        30.03F
GRAND CANYON   PTSUNNY   72  21  14 N10G16    30.21F
KINGMAN, AZ    MOSUNNY   89  29  11 N10       30.01F
FLAGSTAFF, AZ  PTSUNNY   68  19  15 VRB5      30.22F

$$

REGIONAL REPORTS    NEVADA/IDAHO/WYOMING

CITY           SKY/WX    TMP DP  RH WIND       PRES   REMARKS
LAS VEGAS, NV  MOSUNNY   94  28   9 VRB3      29.90F
ELY, NY        MOSUNNY   74  24  15 NE9       30.21F
ELKO, NV       MOSUNNY   75  32  20 SE6       30.18F
POCATELLO, ID  PTSUNNY   72  40  31 SW14      30.14F
BURLEY, ID       N/A     74  35  24 W9        30.12F
FORT BRIDGER,    N/A     62  32  32 NW21G29   30.26F
EVANSTON, WY   LGT RAIN  61  39  44 W18G26    30.25S
ROCK SPRINGS,  CLOUDY    44  32  62 E22G33    30.28R
KEMMERER, WY     N/A     57  28  33 NW16G22   30.25S

$$




USA.gov is the U.S. government's official web portal to all federal, state and local government web resources and services.